This is the latest recevied weather packets stored in our database for station/object HG5PBP-13. If no packets are shown the sender has not sent any weather packets the latest 1 day(s).
| Time | Temp. | Humidity | Pressure | Rain* | Wind** | Luminosity | Snow |
|---|---|---|---|---|---|---|---|
| 1778034262 | 11.67° C | 7% | - | 0 mm | 1.34 m/s, 128° | - | - |
| 1778033962 | 11.67° C | 7% | - | 0 mm | 0.89 m/s, 272° | - | - |
| 1778033662 | 11.67° C | 7% | - | 0 mm | 0.89 m/s, 228° | - | - |
| 1778033362 | 11.67° C | 7% | - | 0 mm | 0.45 m/s, 241° | - | - |
| 1778033062 | 12.22° C | 7% | - | 0 mm | 0.45 m/s, 216° | - | - |
| 1778032762 | 12.22° C | 7% | - | 0 mm | 0.45 m/s, 177° | - | - |
| 1778032461 | 12.22° C | 7% | - | 0 mm | 0.89 m/s, 226° | - | - |
| 1778032162 | 12.22° C | 7% | - | 0 mm | 0.45 m/s, 218° | - | - |
| 1778031861 | 12.22° C | 7% | - | 0 mm | 1.79 m/s, 180° | - | - |
| 1778031561 | 12.22° C | 7% | - | 0 mm | 3.58 m/s, 269° | - | - |
| 1778031261 | 12.22° C | 7% | - | 0 mm | 1.79 m/s, 227° | - | - |
| 1778030961 | 12.22° C | 7% | - | 0 mm | 1.79 m/s, 206° | - | - |
| 1778030661 | 12.22° C | 7% | - | 0 mm | 0.89 m/s, 251° | - | - |
| 1778030361 | 12.22° C | 6% | - | 0 mm | 2.68 m/s, 165° | - | - |
| 1778030061 | 12.22° C | 6% | - | 0 mm | 2.68 m/s, 247° | - | - |
| 1778029761 | 12.22° C | 7% | - | 0 mm | 1.79 m/s, 140° | - | - |
| 1778029461 | 12.22° C | 6% | - | 0 mm | 3.58 m/s, 229° | - | - |
| 1778029161 | 12.78° C | 6% | - | 0 mm | 1.79 m/s, 181° | - | - |
| 1778028861 | 12.78° C | 6% | - | 0 mm | 2.24 m/s, 224° | - | - |
| 1778028561 | 12.78° C | 6% | - | 0 mm | 2.24 m/s, 207° | - | - |
| 1778028261 | 12.78° C | 6% | - | 0 mm | 1.79 m/s, 235° | - | - |
| 1778027961 | 12.78° C | 6% | - | 0 mm | 3.58 m/s, 186° | - | - |
| 1778027661 | 12.78° C | 6% | - | 0 mm | 2.68 m/s, 180° | - | - |
| 1778027361 | 12.78° C | 6% | - | 0 mm | 2.24 m/s, 211° | - | - |
| 1778027061 | 12.78° C | 6% | - | 0 mm | 1.79 m/s, 173° | - | - |
* Rain latest hour (hover to see other rain measurements)
** Current wind speed in m/s (hover to see current wind gust speed)